• Em Portugal
  • Lista de países
  • Para 7 dias
  • Temperatura da água
  • Mapas de satélite
  • Mapa do tempo
  • Widgets de tempo
  • user-avatar
    Iniciar Sessão

    Previsão horária em Rîbniţa

    Hoje, 22 Junho, Sexta-feira

    Tempo Temperatura Precipitação Vento Pressão Humidade
    00:00 +24°C° 0 mm 1 m/s 749 mmHg 68%
    01:00 +24°C° 0 mm 1 m/s 749 mmHg 69%
    02:00 +23°C° 0 mm 2 m/s 748 mmHg 72%
    03:00 +23°C° 0 mm 2 m/s 748 mmHg 73%
    04:00 +23°C° 0 mm 1 m/s 748 mmHg 75%
    05:00 +23°C° 0 mm 1 m/s 748 mmHg 76%
    06:00 +25°C° 0 mm 2 m/s 748 mmHg 72%
    07:00 +26°C° 0 mm 2 m/s 748 mmHg 67%
    08:00 +28°C° 0 mm 2 m/s 747 mmHg 60%
    09:00 +29°C° 0,2 mm 3 m/s 747 mmHg 57%
    10:00 +30°C° 0,2 mm 3 m/s 747 mmHg 53%
    11:00 +31°C° 0,2 mm 3 m/s 747 mmHg 49%
    12:00 +31°C° 0,5 mm 3 m/s 747 mmHg 50%
    13:00 +31°C° 0,5 mm 3 m/s 747 mmHg 50%
    14:00 +31°C° 0 mm 3 m/s 747 mmHg 52%
    15:00 +30°C° 0,8 mm 4 m/s 747 mmHg 59%
    16:00 +29°C° 0,8 mm 4 m/s 747 mmHg 65%
    17:00 +27°C° 0,8 mm 5 m/s 747 mmHg 72%
    18:00 +26°C° 0,4 mm 5 m/s 747 mmHg 77%
    19:00 +25°C° 0,4 mm 5 m/s 747 mmHg 81%
    20:00 +22°C° 0,4 mm 5 m/s 747 mmHg 86%
    21:00 +22°C° 1,5 mm 5 m/s 747 mmHg 88%
    22:00 +21°C° 1,5 mm 5 m/s 747 mmHg 90%
    23:00 +20°C° 1,5 mm 5 m/s 747 mmHg 92%

    Amanhã, 23 Junho, Sábado

    Tempo Temperatura Precipitação Vento Pressão Humidade
    00:00 +19°C° 0,2 mm 5 m/s 747 mmHg 91%
    01:00 +19°C° 0,2 mm 5 m/s 747 mmHg 90%
    02:00 +19°C° 0,2 mm 5 m/s 747 mmHg 90%
    03:00 +17°C° 0,2 mm 5 m/s 747 mmHg 89%
    04:00 +17°C° 0,2 mm 5 m/s 747 mmHg 89%
    05:00 +16°C° 0,2 mm 5 m/s 747 mmHg 88%
    06:00 +16°C° 0,1 mm 5 m/s 747 mmHg 87%
    07:00 +16°C° 0,1 mm 6 m/s 748 mmHg 86%
    08:00 +15°C° 0,1 mm 6 m/s 748 mmHg 85%
    09:00 +15°C° 0,1 mm 7 m/s 748 mmHg 83%
    10:00 +15°C° 0,1 mm 7 m/s 748 mmHg 82%
    11:00 +15°C° 0,1 mm 7 m/s 749 mmHg 80%
    12:00 +15°C° 0,1 mm 7 m/s 749 mmHg 79%
    13:00 +15°C° 0,1 mm 7 m/s 749 mmHg 78%
    14:00 +14°C° 0,1 mm 7 m/s 749 mmHg 77%
    15:00 +15°C° 0 mm 7 m/s 750 mmHg 73%
    16:00 +16°C° 0 mm 6 m/s 750 mmHg 69%
    17:00 +17°C° 0 mm 6 m/s 750 mmHg 65%
    18:00 +16°C° 0 mm 5 m/s 750 mmHg 69%
    19:00 +15°C° 0 mm 4 m/s 750 mmHg 73%
    20:00 +14°C° 0 mm 3 m/s 751 mmHg 77%
    21:00 +13°C° 0 mm 3 m/s 751 mmHg 80%
    22:00 +12°C° 0 mm 3 m/s 751 mmHg 83%
    23:00 +13°C° 0 mm 2 m/s 752 mmHg 86%

    Depois de amanhã, 24 Junho, Domingo

    Tempo Temperatura Precipitação Vento Pressão Humidade
    00:00 +12°C° 0 mm 2 m/s 752 mmHg 87%
    01:00 +12°C° 0 mm 2 m/s 752 mmHg 88%
    02:00 +12°C° 0 mm 2 m/s 752 mmHg 89%
    03:00 +10°C° 0 mm 2 m/s 752 mmHg 90%
    04:00 +10°C° 0 mm 2 m/s 753 mmHg 90%
    05:00 +10°C° 0 mm 2 m/s 753 mmHg 90%
    06:00 +12°C° 0 mm 3 m/s 753 mmHg 82%
    07:00 +14°C° 0 mm 3 m/s 753 mmHg 74%
    08:00 +15°C° 0 mm 4 m/s 753 mmHg 66%
    09:00 +18°C° 0 mm 4 m/s 753 mmHg 62%
    10:00 +19°C° 0 mm 4 m/s 753 mmHg 58%
    11:00 +20°C° 0 mm 4 m/s 753 mmHg 53%
    12:00 +21°C° 0 mm 4 m/s 753 mmHg 52%
    13:00 +21°C° 0 mm 3 m/s 753 mmHg 50%
    14:00 +22°C° 0 mm 3 m/s 753 mmHg 48%
    15:00 +22°C° 0 mm 3 m/s 753 mmHg 49%
    16:00 +23°C° 0 mm 2 m/s 753 mmHg 49%
    17:00 +23°C° 0 mm 2 m/s 753 mmHg 49%
    18:00 +20°C° 0 mm 2 m/s 753 mmHg 55%
    19:00 +20°C° 0 mm 1 m/s 753 mmHg 60%
    20:00 +18°C° 0 mm 1 m/s 753 mmHg 65%
    21:00 +18°C° 0 mm 1 m/s 754 mmHg 68%
    22:00 +16°C° 0 mm 1 m/s 754 mmHg 70%
    23:00 +15°C° 0 mm 1 m/s 754 mmHg 73%

    25 Junho, Segunda-feira

    Tempo Temperatura Precipitação Vento Pressão Humidade
    00:00 +15°C° 0,1 mm 1 m/s 754 mmHg 75%
    01:00 +15°C° 0,1 mm 1 m/s 754 mmHg 78%
    02:00 +14°C° 0,1 mm 1 m/s 754 mmHg 80%
    03:00 +14°C° 0 mm 1 m/s 754 mmHg 81%
    04:00 +14°C° 0 mm 1 m/s 754 mmHg 81%
    05:00 +14°C° 0 mm 1 m/s 754 mmHg 82%
    06:00 +16°C° 0 mm 2 m/s 755 mmHg 77%
    07:00 +17°C° 0 mm 2 m/s 755 mmHg 73%
    08:00 +19°C° 0 mm 2 m/s 755 mmHg 68%
    09:00 +20°C° 0,1 mm 2 m/s 755 mmHg 64%
    10:00 +21°C° 0,1 mm 2 m/s 755 mmHg 59%
    11:00 +23°C° 0,1 mm 2 m/s 755 mmHg 55%
    12:00 +24°C° 0,3 mm 2 m/s 755 mmHg 54%
    13:00 +24°C° 0,3 mm 2 m/s 755 mmHg 53%
    14:00 +25°C° 0,3 mm 1 m/s 755 mmHg 52%
    15:00 +25°C° 0,2 mm 1 m/s 755 mmHg 53%
    16:00 +24°C° 0,2 mm 1 m/s 755 mmHg 54%
    17:00 +24°C° 0,2 mm 1 m/s 755 mmHg 56%
    18:00 +23°C° 0 mm 1 m/s 755 mmHg 61%
    19:00 +21°C° 0 mm 2 m/s 755 mmHg 66%
    20:00 +19°C° 0 mm 2 m/s 755 mmHg 72%
    21:00 +19°C° 0 mm 2 m/s 755 mmHg 74%
    22:00 +18°C° 0 mm 2 m/s 755 mmHg 77%
    23:00 +17°C° 0 mm 2 m/s 756 mmHg 80%

    26 Junho, Terça-feira

    Tempo Temperatura Precipitação Vento Pressão Humidade
    00:00 +17°C° 0 mm 2 m/s 756 mmHg 81%
    01:00 +16°C° 0 mm 2 m/s 756 mmHg 83%
    02:00 +16°C° 0 mm 1 m/s 756 mmHg 85%
    03:00 +16°C° 0 mm 1 m/s 756 mmHg 85%
    04:00 +16°C° 0 mm 1 m/s 756 mmHg 86%
    05:00 +16°C° 0 mm 1 m/s 756 mmHg 86%
    06:00 +17°C° 0 mm 2 m/s 756 mmHg 80%
    07:00 +19°C° 0 mm 2 m/s 756 mmHg 74%
    08:00 +21°C° 0 mm 2 m/s 756 mmHg 68%
    09:00 +22°C° 0,1 mm 3 m/s 756 mmHg 63%
    10:00 +24°C° 0,1 mm 3 m/s 756 mmHg 58%
    11:00 +25°C° 0,1 mm 3 m/s 756 mmHg 53%
    12:00 +26°C° 0 mm 3 m/s 756 mmHg 51%
    13:00 +27°C° 0 mm 3 m/s 755 mmHg 49%
    14:00 +27°C° 0 mm 3 m/s 755 mmHg 47%
    15:00 +27°C° 0 mm 3 m/s 755 mmHg 48%
    16:00 +27°C° 0 mm 3 m/s 755 mmHg 50%
    17:00 +26°C° 0 mm 3 m/s 755 mmHg 51%
    18:00 +25°C° 0 mm 3 m/s 755 mmHg 58%
    19:00 +22°C° 0 mm 3 m/s 755 mmHg 64%
    20:00 +21°C° 0 mm 3 m/s 755 mmHg 70%
    21:00 +20°C° 0 mm 3 m/s 755 mmHg 72%
    22:00 +19°C° 0 mm 2 m/s 755 mmHg 73%
    23:00 +18°C° 0 mm 2 m/s 755 mmHg 75%

    27 Junho, Quarta-feira

    Tempo Temperatura Precipitação Vento Pressão Humidade
    00:00 +18°C° 0 mm 2 m/s 755 mmHg 77%
    01:00 +17°C° 0 mm 2 m/s 755 mmHg 79%
    02:00 +16°C° 0 mm 2 m/s 755 mmHg 81%
    03:00 +16°C° 0 mm 2 m/s 755 mmHg 83%
    04:00 +16°C° 0 mm 2 m/s 755 mmHg 84%
    05:00 +16°C° 0 mm 2 m/s 755 mmHg 85%
    06:00 +18°C° 0 mm 3 m/s 755 mmHg 79%
    07:00 +19°C° 0 mm 3 m/s 755 mmHg 72%
    08:00 +21°C° 0 mm 4 m/s 755 mmHg 66%
    09:00 +22°C° 0 mm 4 m/s 755 mmHg 62%
    10:00 +23°C° 0 mm 4 m/s 755 mmHg 57%
    11:00 +26°C° 0 mm 5 m/s 755 mmHg 53%
    12:00 +26°C° 0 mm 5 m/s 754 mmHg 52%
    13:00 +26°C° 0 mm 5 m/s 754 mmHg 51%
    14:00 +27°C° 0 mm 5 m/s 754 mmHg 50%
    15:00 +27°C° 0 mm 5 m/s 754 mmHg 51%
    16:00 +26°C° 0 mm 5 m/s 754 mmHg 53%
    17:00 +26°C° 0 mm 5 m/s 753 mmHg 55%
    18:00 +23°C° 0 mm 4 m/s 754 mmHg 62%
    19:00 +22°C° 0 mm 4 m/s 754 mmHg 69%
    20:00 +20°C° 0 mm 3 m/s 754 mmHg 76%
    21:00 +19°C° 0 mm 3 m/s 754 mmHg 79%
    22:00 +18°C° 0 mm 3 m/s 754 mmHg 81%
    23:00 +18°C° 0 mm 3 m/s 755 mmHg 84%
    Mostrar mais